Flag for South Korea Weather past 2 weeks in Gunsan, South Korea

Now
67 °F

Sunny.


Feels Like: 67 °F
Forecast: 50 / 67 °F
Wind: 3 mph from East

Location: Kunsan Ab

Current Time: Apr 25, 2015 at 11:19:42 AM

Latest Report: Apr 25, 2015 at 10:58 AM


Visibility: 7 mi

Pressure: 30.18 "Hg

Humidity: 26%

Dew point: 31 °F

Location of GunsanLocation

Historic Weather in Gunsan — Graph

°F

Gunsan temperature yesterday

Maximum temperature yesterday: 62 °F (at 3:58 PM)
Minimum temperature yesterday: 50 °F (at 5:58 AM)
Average temperature yesterday: 56 °F

Past Weeks' High & Low Weather Summary

 TemperatureHumidityPressure
High71 °F (Apr 18, 2:58 PM)100% (Apr 14, 1:04 AM)30.34 "Hg (Apr 14, 1:04 AM)
Low39 °F (Apr 18, 5:58 AM)28% (Apr 18, 2:58 PM)29.54 "Hg (Apr 20, 4:59 AM)
Average53 °F75%30.00 "Hg
* Reported Apr 10 9:58 AM — Apr 25 9:58 AM, Gunsan, Weather by CustomWeather, © 2015

Note: Actual official high and low records may vary slightly from our data, if they occured in-between our weather recording intervals... More about our weather records

Advertising

Gunsan weather history for previous 24 hours

 ConditionsComfort  
Time TempWeatherWind HumidityBarometerVisibility
9:58 AM
Sat, Apr 25
61 °FSunny.6 mph61%30.18 "Hg8 mi
8:04 AM48 °FFog.5 mph100%30.17 "Hg1 mi
7:58 AM46 °FFog.5 mph100%30.18 "Hg1 mi
7:03 AM46 °FFog.5 mph100%30.16 "Hg1 mi
5:59 AM46 °FFog.3 mph100%30.15 "Hg2 mi
5:58 AM47 °FFog.5 mph100%30.16 "Hg2 mi
4:58 AM47 °FFog.2 mph99%30.15 "Hg6 mi
3:58 AM46 °FFog.5 mph100%30.15 "Hg4 mi
2:58 AM46 °FFog.1 mph100%30.15 "Hg4 mi
1:59 AM48 °FFog.7 mph100%30.13 "Hg5 mi
1:58 AM48 °FFog.7 mph99%30.14 "Hg5 mi
12:58 AM51 °FClear.2 mph76%30.16 "Hg10 mi
11:58 PM
Fri, Apr 24
50 °FClear.No wind74%30.16 "Hg10 mi
10:58 PM52 °FClear.5 mph69%30.16 "Hg10 mi
8:58 PM51 °FClear.6 mph91%30.14 "Hg8 mi
7:58 PM54 °FClear.6 mph94%30.12 "Hg8 mi
6:58 PM56 °FSunny.8 mph90%30.10 "Hg8 mi
5:58 PM58 °FSunny.8 mph77%30.10 "Hg9 mi
4:58 PM60 °FSunny.13 mph68%30.10 "Hg5 mi
3:58 PM62 °FHaze.13 mph64%30.10 "Hg5 mi
2:58 PM61 °FHaze.10 mph67%30.11 "Hg5 mi
1:58 PM61 °FBroken clouds.8 mph63%30.12 "Hg5 mi
12:58 PM61 °FBroken clouds.8 mph63%30.13 "Hg5 mi
11:57 AM60 °FScattered clouds.9 mph65%30.14 "Hg5 mi
Weather by CustomWeather, © 2015

See weather overviewHow to use our weather pages